EW0910 Weather Reports


Display with metric or nautical units.
time (UTC)temp
F
wind
direction
speed
MPH
gust
MPH
rain 1hr
in
rain 24hr
in
rain mn
in
humidity
%
barometer
mb
20260505170008 53 212 1.0 16.0 0.00 0.30 0.30 71 1008.0
20260505164632 54 297 2.0 11.0 0.00 0.30 0.30 72 1007.7
20260505163058 53 43 3.0 19.0 0.00 0.30 0.30 74 1007.4
20260505161600 52 146 1.0 10.0 0.00 0.30 0.30 76 1008.1
20260505160108 52 113 1.0 11.0 0.00 0.30 0.30 77 1008.2
20260505153052 52 38 1.0 11.0 0.00 0.30 0.30 82 1007.9
20260505151550 52 319 1.0 8.0 0.00 0.30 0.30 83 1007.6
20260505124531 53 105 1.0 11.0 0.01 0.28 0.28 85 1006.5
20260505123030 53 71 2.0 9.0 0.00 0.27 0.27 85 1006.4
20260505121526 54 84 0.0 10.0 0.00 0.27 0.27 85 1005.7
20260505120023 54 86 2.0 13.0 0.00 0.27 0.27 85 1005.0
20260505114520 55 79 1.0 9.0 0.00 0.27 0.27 85 1004.9
20260505113018 55 128 2.0 9.0 0.00 0.27 0.27 86 1004.5
20260505111516 56 104 1.0 8.0 0.00 0.27 0.27 87 1004.2
20260505101513 59 121 0.0 0.0 0.00 0.27 0.27 89 1004.1
20260505100007 59 115 0.0 0.0 0.00 0.27 0.27 89 1004.0
20260505094514 59 208 0.0 0.0 0.00 0.27 0.27 89 1004.1
20260505093003 59 208 0.0 0.0 0.00 0.27 0.27 89 1004.0
20260505091501 59 130 0.0 0.0 0.00 0.27 0.27 89 1004.2
20260505090001 59 130 0.0 2.0 0.01 0.27 0.27 88 1003.9
20260505084600 59 262 0.0 6.0 0.01 0.27 0.27 88 1003.6
20260505083100 59 167 0.0 5.0 0.01 0.27 0.27 88 1003.2
20260505081559 60 308 0.0 3.0 0.01 0.27 0.27 88 1003.0
20260505080106 60 150 0.0 4.0 0.00 0.26 0.26 88 1002.2
20260505074555 60 136 0.0 0.0 0.00 0.26 0.26 88 1002.5
20260505073055 60 94 0.0 0.0 0.01 0.26 0.26 88 1001.7
20260505071552 61 200 0.0 3.0 0.04 0.26 0.26 87 1001.8
20260505070055 61 234 1.0 7.0 0.11 0.26 0.26 87 1002.4
20260505064547 62 35 1.0 5.0 0.23 0.26 0.26 87 1001.6
20260505063101 62 92 0.0 8.0 0.25 0.25 0.25 86 1002.9
20260505061544 63 205 0.0 8.0 0.21 0.21 0.21 85 1003.9
20260505060040 63 152 2.0 10.0 0.14 0.14 0.14 84 1004.9
20260505054538 65 234 1.0 10.0 0.03 0.03 0.03 81 1004.8
20260505053032 67 227 0.0 6.0 0.00 0.00 0.00 77 1003.9
20260505051528 68 137 2.0 13.0 0.00 0.00 0.00 72 1003.2
20260505041534 67 238 0.0 4.0 0.00 0.00 0.00 72 1003.6
20260505040036 68 108 0.0 3.0 0.00 0.00 0.00 72 1002.9
20260505034524 68 123 0.0 5.0 0.00 0.00 0.00 72 1003.0
20260505033022 68 109 0.0 3.0 0.00 0.00 0.00 71 1003.6
20260505031534 68 227 0.0 5.0 0.00 0.00 0.00 71 1003.7
20260505030021 69 231 0.0 3.0 0.00 0.00 0.00 70 1003.5
20260505024520 69 133 0.0 5.0 0.00 0.00 0.00 69 1003.5
20260505023019 70 229 0.0 2.0 0.00 0.00 0.00 69 1003.4
20260505021519 70 228 0.0 1.0 0.00 0.00 0.00 68 1003.1
20260505020019 70 74 0.0 5.0 0.00 0.00 0.00 68 1003.0
20260505014520 70 91 0.0 6.0 0.00 0.00 0.00 67 1002.7
20260505013017 71 278 0.0 4.0 0.00 0.00 0.00 66 1002.7
20260505011517 71 106 0.0 6.0 0.00 0.00 0.00 65 1002.4
20260505010023 72 265 0.0 4.0 0.00 0.00 0.00 63 1002.5
20260505004516 73 225 0.0 6.0 0.00 0.00 0.00 62 1002.5
20260505003015 73 238 0.0 6.0 0.00 0.00 0.00 61 1002.5
20260505001515 74 208 0.0 9.0 0.00 0.00 0.00 61 1002.6
20260505000014 75 117 0.0 6.0 0.00 0.00 0.00 60 1002.6
20260504234513 76 219 1.0 12.0 0.00 0.00 0.00 59 1002.5
20260504233013 76 171 0.0 4.0 0.00 0.00 0.00 60 1002.6
20260504231513 78 220 2.0 9.0 0.00 0.00 0.00 59 1002.6
20260504230013 79 196 0.0 9.0 0.00 0.00 0.00 58 1002.6
20260504224515 80 238 1.0 5.0 0.00 0.00 0.00 57 1002.4
20260504223022 81 80 0.0 6.0 0.00 0.00 0.00 56 1002.4
20260504221511 81 194 3.0 12.0 0.00 0.00 0.00 53 1002.3
20260504220015 82 277 1.0 7.0 0.00 0.00 0.00 55 1002.1
20260504214511 82 139 2.0 8.0 0.00 0.00 0.00 55 1002.1
20260504213020 82 220 1.0 7.0 0.00 0.00 0.00 53 1002.3
20260504211507 83 221 1.0 5.0 0.00 0.00 0.00 54 1002.3
20260504210005 83 227 1.0 10.0 0.00 0.00 0.00 56 1002.5
20260504204508 83 245 1.0 7.0 0.00 0.00 0.00 56 1002.7
20260504203002 83 128 3.0 11.0 0.00 0.00 0.00 53 1003.0
20260504201501 83 271 1.0 10.0 0.00 0.00 0.00 52 1003.2
20260504200126 83 221 1.0 10.0 0.00 0.00 0.00 54 1003.3
20260504194602 83 269 0.0 8.0 0.00 0.00 0.00 54 1003.4
20260504193056 82 214 3.0 12.0 0.00 0.00 0.00 51 1003.5
20260504191559 83 227 3.0 14.0 0.00 0.00 0.00 51 1003.6
20260504190053 83 254 4.0 10.0 0.00 0.00 0.00 49 1003.7
20260504184549 82 221 0.0 7.0 0.00 0.00 0.00 53 1004.0
20260504183048 81 236 1.0 10.0 0.00 0.00 0.00 53 1004.1
20260504181547 81 157 1.0 8.0 0.00 0.00 0.00 54 1004.2
20260504180045 80 215 4.0 9.0 0.00 0.00 0.00 51 1004.3
20260504174544 80 82 2.0 9.0 0.00 0.00 0.00 54 1004.5
20260504173038 78 236 2.0 12.0 0.00 0.00 0.00 53 1004.4
20260504171542 78 119 2.0 13.0 0.00 0.00 0.00 54 1004.3